Curacao, Curacao

11:48 AM AST on February 07, 2016 (GMT -0400)
Curacao

Weather History for 78988 - October, 2012

Change the Weather History Date:

Saturday, October 6, 2012

  Actual Average Record
Temperature  
Mean Temperature 82 °F -  
Max Temperature 87 °F 88 °F - ()
Min Temperature 77 °F 77 °F - ()
Cooling Degree Days 17    
Growing Degree Days 32 (Base 50)    
Moisture  
Dew Point 76 °F    
Average Humidity 82    
Maximum Humidity 89    
Minimum Humidity 69    
Precipitation  
Precipitation 0.39 in 0.11 in - ()
Sea Level Pressure  
Sea Level Pressure 29.80 in    
Wind  
Wind Speed 6 mph ()    
Max Wind Speed 13 mph    
Max Gust Speed -    
Visibility 7.2 miles    
Events Rain , Thunderstorm    
T = Trace of Precipitation, MM = Missing Value Source: Averaged Metar Reports

Daily Weather History Graph

Daily Weather History Graph

Search for Another Location

Airport or City:

Trip Planner

Search our weather history database for the weather conditions in past years. The results will help you decide how hot, cold, wet, or windy it might be!

Date:

Astronomy

Oct. 06, 2012 Rise Set
Actual Time 6:25 AM AST 6:22 PM AST
Civil Twilight 6:03 AM AST 6:43 PM AST
Nautical Twilight 5:39 AM AST 7:08 PM AST
Astronomical Twilight 5:14 AM AST 7:32 PM AST
Moon 11:18 PM AST (10/6) 11:32 AM AST (10/6)
Length of Visible Light 12h 39m
Length of Day
11h 57m
Waning Gibbous, 65% of the Moon is Illuminated
Oct 6
Waning Gibbous
Oct 8
Last Quarter
Oct 15
New
Oct 21
First Quarter
Oct 29
Full

Hourly Weather History & Observations

Time (AST) Temp. Heat Index Dew Point Humidity Pressure Visibility Wind Dir Wind Speed Gust Speed Precip Events Conditions
12:00 AM 80.6 °F 86.2 °F 75.2 °F 84% 29.83 in 6.2 mi ESE 5.8 mph - N/A   Scattered Clouds
1:00 AM 80.6 °F 86.2 °F 75.2 °F 84% 29.80 in 6.2 mi SE 6.9 mph - N/A   Scattered Clouds
2:00 AM 81 °F - 75 °F 78% 29.79 in 31 mi East 6.9 mph - -   Partly Cloudy
2:00 AM 80.6 °F 86.2 °F 75.2 °F 84% 29.77 in 6.2 mi East 6.9 mph - N/A   Scattered Clouds
3:00 AM 80.6 °F 86.2 °F 75.2 °F 84% 29.77 in 6.2 mi ESE 6.9 mph - N/A   Scattered Clouds
4:00 AM 78.8 °F - 75.2 °F 89% 29.77 in 6.2 mi SE 3.5 mph - N/A   Scattered Clouds
5:00 AM 78 °F - 74 °F 85% 29.78 in 31 mi ESE 4.6 mph - -   Partly Cloudy
5:00 AM 78.8 °F - 75.2 °F 89% 29.77 in 6.2 mi ESE 4.6 mph - N/A   Scattered Clouds
6:00 AM 78.8 °F - 75.2 °F 89% 29.80 in 6.2 mi SE 4.6 mph - N/A   Scattered Clouds
7:00 AM 78.8 °F - 75.2 °F 89% 29.80 in 6.2 mi SE 4.6 mph - N/A   Partly Cloudy
8:00 AM 82 °F - 75 °F 73% 29.82 in 25 mi ESE 8.1 mph - -   Partly Cloudy
8:00 AM 82.4 °F 89.5 °F 75.2 °F 79% 29.83 in 6.2 mi ESE 5.8 mph - N/A   Scattered Clouds
9:00 AM 84.2 °F 92.3 °F 75.2 °F 74% 29.83 in 6.2 mi East 8.1 mph - N/A   Scattered Clouds
10:00 AM 84.2 °F 94.1 °F 77.0 °F 79% 29.83 in 6.2 mi East 9.2 mph - N/A   Scattered Clouds
11:00 AM 85 °F - 76 °F 69% 29.84 in 25 mi East 12.7 mph - -   Partly Cloudy
11:00 AM 84.2 °F 94.1 °F 77.0 °F 79% 29.83 in 6.2 mi East 10.4 mph - N/A   Scattered Clouds
12:00 PM 84.2 °F 92.3 °F 75.2 °F 74% 29.83 in 6.2 mi East 12.7 mph - N/A Rain Light Rain Showers
12:30 PM 80.6 °F 87.1 °F 77.0 °F 89% 29.80 in 6.2 mi East 8.1 mph - N/A Rain , Thunderstorm Light Thunderstorms and Rain
1:00 PM 80.6 °F 87.1 °F 77.0 °F 89% 29.80 in 5.6 mi ENE 6.9 mph - N/A Rain , Thunderstorm Light Thunderstorms and Rain
2:00 PM 81 °F - 77 °F 85% 29.76 in 6 mi 4.6 mph - - Rain Light Rain Showers
2:00 PM 80.6 °F 87.1 °F 77.0 °F 89% 29.74 in 5.6 mi Variable 3.5 mph - N/A Rain Light Rain Showers
3:00 PM 84.2 °F 96.1 °F 78.8 °F 84% 29.74 in 6.2 mi ENE 9.2 mph - N/A   Scattered Clouds
5:00 PM 83 °F - 76 °F 73% 29.74 in 16 mi East 8.1 mph - -   Partly Cloudy
5:00 PM 82.4 °F 89.5 °F 75.2 °F 79% 29.74 in 6.2 mi East 8.1 mph - N/A   Partly Cloudy
6:00 PM 82.4 °F 90.9 °F 77.0 °F 84% 29.74 in 6.2 mi ENE 8.1 mph - N/A   Partly Cloudy
7:00 PM 80.6 °F 87.1 °F 77.0 °F 89% 29.77 in 6.2 mi East 9.2 mph - N/A   Partly Cloudy
8:00 PM 82 °F - 76 °F 78% 29.80 in 16 mi East 9.2 mph - -   Partly Cloudy
8:00 PM 80.6 °F 86.2 °F 75.2 °F 84% 29.80 in 6.2 mi East 9.2 mph - N/A   Partly Cloudy
9:00 PM 82.4 °F 89.5 °F 75.2 °F 79% 29.83 in 6.2 mi East 10.4 mph - N/A   Partly Cloudy
10:00 PM 80.6 °F 86.2 °F 75.2 °F 84% 29.83 in 6.2 mi East 8.1 mph - N/A   Partly Cloudy
11:00 PM 82 °F - 75 °F 75% 29.84 in 16 mi ESE 9.2 mph - -   Scattered Clouds
11:00 PM 82.4 °F 89.5 °F 75.2 °F 79% 29.83 in 6.2 mi East 9.2 mph - N/A   Partly Cloudy
11:28 PM 80.6 °F 86.2 °F 75.2 °F 84% 29.86 in 6.2 mi ESE 6.9 mph - N/A Thunderstorm Thunderstorm